Year,Month,Day,Hour,Minute,Value (Times are PST for temperature in C)
2017,04,03,00,00,5.60
2017,04,03,00,01,5.60
2017,04,03,00,02,5.60
2017,04,03,00,03,5.60
2017,04,03,00,04,5.60
2017,04,03,00,05,5.60
2017,04,03,00,06,5.50
2017,04,03,00,07,5.50
2017,04,03,00,08,5.50
2017,04,03,00,09,5.50
2017,04,03,00,10,5.50
2017,04,03,00,11,5.40
2017,04,03,00,12,5.40
2017,04,03,00,13,5.40
2017,04,03,00,14,5.40
2017,04,03,00,15,5.40
2017,04,03,00,16,5.30
2017,04,03,00,17,5.30
2017,04,03,00,18,5.30
2017,04,03,00,19,5.30
2017,04,03,00,20,5.30
2017,04,03,00,21,5.30
2017,04,03,00,22,5.30
2017,04,03,00,23,5.20
2017,04,03,00,24,5.20
2017,04,03,00,25,5.20
2017,04,03,00,26,5.20
2017,04,03,00,27,5.20
2017,04,03,00,28,5.20
2017,04,03,00,29,5.10
2017,04,03,00,30,5.10
2017,04,03,00,31,5.10
2017,04,03,00,32,5.10
2017,04,03,00,33,5.10
2017,04,03,00,34,5.00
2017,04,03,00,35,5.00
2017,04,03,00,36,5.00
2017,04,03,00,37,5.00
2017,04,03,00,38,4.90
2017,04,03,00,39,4.90
2017,04,03,00,40,4.90
2017,04,03,00,41,4.90
2017,04,03,00,42,4.90
2017,04,03,00,43,4.90
2017,04,03,00,44,4.80
2017,04,03,00,45,4.80
2017,04,03,00,46,4.80
2017,04,03,00,47,4.80
2017,04,03,00,48,4.80
2017,04,03,00,49,4.80
2017,04,03,00,50,4.80
2017,04,03,00,51,4.80
2017,04,03,00,52,4.80
2017,04,03,00,53,4.80
2017,04,03,00,54,4.70
2017,04,03,00,55,4.70
2017,04,03,00,56,4.70
2017,04,03,00,57,4.70
2017,04,03,00,58,4.70
2017,04,03,00,59,4.70
2017,04,03,01,00,4.70
2017,04,03,01,01,4.70
2017,04,03,01,02,4.70
2017,04,03,01,03,4.70
2017,04,03,01,04,4.70
2017,04,03,01,05,4.70
2017,04,03,01,06,4.70
2017,04,03,01,07,4.70
2017,04,03,01,08,4.70
2017,04,03,01,09,4.70
2017,04,03,01,10,4.70
2017,04,03,01,11,4.70
2017,04,03,01,12,4.70
2017,04,03,01,13,4.70
2017,04,03,01,14,4.60
2017,04,03,01,15,4.60
2017,04,03,01,16,4.60
2017,04,03,01,17,4.60
2017,04,03,01,18,4.60
2017,04,03,01,19,4.60
2017,04,03,01,20,4.60
2017,04,03,01,21,4.60
2017,04,03,01,22,4.60
2017,04,03,01,23,4.50
2017,04,03,01,24,4.50
2017,04,03,01,25,4.50
2017,04,03,01,26,4.50
2017,04,03,01,27,4.50
2017,04,03,01,28,4.50
2017,04,03,01,29,4.40
2017,04,03,01,30,4.40
2017,04,03,01,31,4.40
2017,04,03,01,32,4.40
2017,04,03,01,33,4.40
2017,04,03,01,34,4.40
2017,04,03,01,35,4.30
2017,04,03,01,36,4.30
2017,04,03,01,37,4.30
2017,04,03,01,38,4.30
2017,04,03,01,39,4.30
2017,04,03,01,40,4.30
2017,04,03,01,41,4.20
2017,04,03,01,42,4.20
2017,04,03,01,43,4.20
2017,04,03,01,44,4.20
2017,04,03,01,45,4.20
2017,04,03,01,46,4.20
2017,04,03,01,47,4.20
2017,04,03,01,48,4.10
2017,04,03,01,49,4.10
2017,04,03,01,50,4.10
2017,04,03,01,51,4.10
2017,04,03,01,52,4.10
2017,04,03,01,53,4.10
2017,04,03,01,54,4.00
2017,04,03,01,55,4.00
2017,04,03,01,56,4.00
2017,04,03,01,57,4.00
2017,04,03,01,58,3.90
2017,04,03,01,59,3.90
2017,04,03,02,00,3.90
2017,04,03,02,01,3.90
2017,04,03,02,02,3.90
2017,04,03,02,03,3.80
2017,04,03,02,04,3.80
2017,04,03,02,05,3.80
2017,04,03,02,06,3.80
2017,04,03,02,07,3.80
2017,04,03,02,08,3.80
2017,04,03,02,09,3.70
2017,04,03,02,10,3.70
2017,04,03,02,11,3.70
2017,04,03,02,12,3.70
2017,04,03,02,13,3.70
2017,04,03,02,14,3.70
2017,04,03,02,15,3.60
2017,04,03,02,16,3.60
2017,04,03,02,17,3.60
2017,04,03,02,18,3.60
2017,04,03,02,19,3.60
2017,04,03,02,20,3.50
2017,04,03,02,21,3.50
2017,04,03,02,22,3.50
2017,04,03,02,23,3.40
2017,04,03,02,24,3.40
2017,04,03,02,25,3.40
2017,04,03,02,26,3.40
2017,04,03,02,27,3.40
2017,04,03,02,28,3.40
2017,04,03,02,29,3.30
2017,04,03,02,30,3.30
2017,04,03,02,31,3.30
2017,04,03,02,32,3.30
2017,04,03,02,33,3.30
2017,04,03,02,34,3.20
2017,04,03,02,35,3.20
2017,04,03,02,36,3.20
2017,04,03,02,37,3.20
2017,04,03,02,38,3.20
2017,04,03,02,39,3.20
2017,04,03,02,40,3.10
2017,04,03,02,41,3.10
2017,04,03,02,42,3.10
2017,04,03,02,43,3.10
2017,04,03,02,44,3.10
2017,04,03,02,45,3.10
2017,04,03,02,46,3.00
2017,04,03,02,47,3.00
2017,04,03,02,48,3.00
2017,04,03,02,49,2.90
2017,04,03,02,50,2.90
2017,04,03,02,51,2.90
2017,04,03,02,52,2.90
2017,04,03,02,53,2.80
2017,04,03,02,54,2.80
2017,04,03,02,55,2.80
2017,04,03,02,56,2.80
2017,04,03,02,57,2.70
2017,04,03,02,58,2.70
2017,04,03,02,59,2.70
2017,04,03,03,00,2.70
2017,04,03,03,01,2.60
2017,04,03,03,02,2.60
2017,04,03,03,03,2.60
2017,04,03,03,04,2.60
2017,04,03,03,05,2.60
2017,04,03,03,06,2.50
2017,04,03,03,07,2.50
2017,04,03,03,08,2.50
2017,04,03,03,09,2.40
2017,04,03,03,10,2.40
2017,04,03,03,11,2.40
2017,04,03,03,12,2.40
2017,04,03,03,13,2.40
2017,04,03,03,14,2.40
2017,04,03,03,15,2.30
2017,04,03,03,16,2.30
2017,04,03,03,17,2.30
2017,04,03,03,18,2.30
2017,04,03,03,19,2.30
2017,04,03,03,20,2.30
2017,04,03,03,21,2.30
2017,04,03,03,22,2.30
2017,04,03,03,23,2.30
2017,04,03,03,24,2.20
2017,04,03,03,25,2.20
2017,04,03,03,26,2.20
2017,04,03,03,27,2.20
2017,04,03,03,28,2.20
2017,04,03,03,29,2.20
2017,04,03,03,30,2.20
2017,04,03,03,31,2.10
2017,04,03,03,32,2.10
2017,04,03,03,33,2.10
2017,04,03,03,34,2.10
2017,04,03,03,35,2.10
2017,04,03,03,36,2.10
2017,04,03,03,37,2.10
2017,04,03,03,38,2.10
2017,04,03,03,39,2.10
2017,04,03,03,40,2.10
2017,04,03,03,41,2.00
2017,04,03,03,42,2.00
2017,04,03,03,43,2.00
2017,04,03,03,44,2.00
2017,04,03,03,45,1.90
2017,04,03,03,46,1.90
2017,04,03,03,47,1.90
2017,04,03,03,48,1.90
2017,04,03,03,49,1.90
2017,04,03,03,50,1.90
2017,04,03,03,51,1.90
2017,04,03,03,52,1.90
2017,04,03,03,53,1.80
2017,04,03,03,54,1.80
2017,04,03,03,55,1.80
2017,04,03,03,56,1.80
2017,04,03,03,57,1.80
2017,04,03,03,58,1.80
2017,04,03,03,59,1.80
2017,04,03,04,00,1.80
2017,04,03,04,01,1.70
2017,04,03,04,02,1.70
2017,04,03,04,03,1.70
2017,04,03,04,04,1.70
2017,04,03,04,05,1.70
2017,04,03,04,06,1.70
2017,04,03,04,07,1.70
2017,04,03,04,08,1.70
2017,04,03,04,09,1.70
2017,04,03,04,10,1.70
2017,04,03,04,11,1.60
2017,04,03,04,12,1.60
2017,04,03,04,13,1.60
2017,04,03,04,14,1.60
2017,04,03,04,15,1.60
2017,04,03,04,16,1.60
2017,04,03,04,17,1.60
2017,04,03,04,18,1.60
2017,04,03,04,19,1.60
2017,04,03,04,20,1.50
2017,04,03,04,21,1.50
2017,04,03,04,22,1.50
2017,04,03,04,23,1.50
2017,04,03,04,24,1.50
2017,04,03,04,25,1.50
2017,04,03,04,26,1.50
2017,04,03,04,27,1.50
2017,04,03,04,28,1.40
2017,04,03,04,29,1.40
2017,04,03,04,30,1.40
2017,04,03,04,31,1.40
2017,04,03,04,32,1.40
2017,04,03,04,33,1.40
2017,04,03,04,34,1.40
2017,04,03,04,35,1.40
2017,04,03,04,36,1.40
2017,04,03,04,37,1.30
2017,04,03,04,38,1.30
2017,04,03,04,39,1.30
2017,04,03,04,40,1.30
2017,04,03,04,41,1.30
2017,04,03,04,42,1.30
2017,04,03,04,43,1.30
2017,04,03,04,44,1.30
2017,04,03,04,45,1.30
2017,04,03,04,46,1.20
2017,04,03,04,47,1.20
2017,04,03,04,48,1.20
2017,04,03,04,49,1.20
2017,04,03,04,50,1.20
2017,04,03,04,51,1.20
2017,04,03,04,52,1.20
2017,04,03,04,53,1.20
2017,04,03,04,54,1.20
2017,04,03,04,55,1.20
2017,04,03,04,56,1.20
2017,04,03,04,57,1.20
2017,04,03,04,58,1.20
2017,04,03,04,59,1.10
2017,04,03,05,00,1.10
2017,04,03,05,01,1.10
2017,04,03,05,02,1.10
2017,04,03,05,03,1.10
2017,04,03,05,04,1.10
2017,04,03,05,05,1.10
2017,04,03,05,06,1.10
2017,04,03,05,07,1.10
2017,04,03,05,08,1.10
2017,04,03,05,09,1.10
2017,04,03,05,10,1.10
2017,04,03,05,11,1.10
2017,04,03,05,12,1.10
2017,04,03,05,13,1.10
2017,04,03,05,14,1.10
2017,04,03,05,15,1.00
2017,04,03,05,16,1.10
2017,04,03,05,17,1.00
2017,04,03,05,18,1.00
2017,04,03,05,19,1.00
2017,04,03,05,20,1.00
2017,04,03,05,21,1.00
2017,04,03,05,22,1.00
2017,04,03,05,23,1.00
2017,04,03,05,24,1.00
2017,04,03,05,25,1.00
2017,04,03,05,26,0.90
2017,04,03,05,27,0.90
2017,04,03,05,28,0.90
2017,04,03,05,29,0.90
2017,04,03,05,30,0.90
2017,04,03,05,31,0.90
2017,04,03,05,32,0.90
2017,04,03,05,33,0.90
2017,04,03,05,34,0.90
2017,04,03,05,35,0.90
2017,04,03,05,36,0.80
2017,04,03,05,37,0.80
2017,04,03,05,38,0.80
2017,04,03,05,39,0.80
2017,04,03,05,40,0.80
2017,04,03,05,41,0.80
2017,04,03,05,42,0.90
2017,04,03,05,43,0.80
2017,04,03,05,44,0.80
2017,04,03,05,45,0.80
2017,04,03,05,46,0.80
2017,04,03,05,47,0.80
2017,04,03,05,48,0.80
2017,04,03,05,49,0.80
2017,04,03,05,50,0.80
2017,04,03,05,51,0.80
2017,04,03,05,52,0.80
2017,04,03,05,53,0.80
2017,04,03,05,54,0.80
2017,04,03,05,55,0.80
2017,04,03,05,56,0.80
2017,04,03,05,57,0.80
2017,04,03,05,58,0.80
2017,04,03,05,59,0.80
2017,04,03,06,00,0.80
2017,04,03,06,01,0.80
2017,04,03,06,02,0.80
2017,04,03,06,03,0.80
2017,04,03,06,04,0.80
2017,04,03,06,05,0.80
2017,04,03,06,06,0.80
2017,04,03,06,07,0.80
2017,04,03,06,08,0.80
2017,04,03,06,09,0.80
2017,04,03,06,10,0.80
2017,04,03,06,11,0.80
2017,04,03,06,12,0.80
2017,04,03,06,13,0.80
2017,04,03,06,14,0.80
2017,04,03,06,15,0.80
2017,04,03,06,16,0.80
2017,04,03,06,17,0.80
2017,04,03,06,18,0.80
2017,04,03,06,19,0.80
2017,04,03,06,20,0.80
2017,04,03,06,21,0.70
2017,04,03,06,22,0.70
2017,04,03,06,23,0.70
2017,04,03,06,24,0.70
2017,04,03,06,25,0.70
2017,04,03,06,26,0.70
2017,04,03,06,27,0.70
2017,04,03,06,28,0.70
2017,04,03,06,29,0.70
2017,04,03,06,30,0.60
2017,04,03,06,31,0.60
2017,04,03,06,32,0.60
2017,04,03,06,33,0.60
2017,04,03,06,34,0.60
2017,04,03,06,35,0.60
2017,04,03,06,36,0.60
2017,04,03,06,37,0.60
2017,04,03,06,38,0.60
2017,04,03,06,39,0.60
2017,04,03,06,40,0.60
2017,04,03,06,41,0.60
2017,04,03,06,42,0.50
2017,04,03,06,43,0.50
2017,04,03,06,44,0.50
2017,04,03,06,45,0.50
2017,04,03,06,46,0.50
2017,04,03,06,47,0.60
2017,04,03,06,48,0.60
2017,04,03,06,49,0.60
2017,04,03,06,50,0.60
2017,04,03,06,51,0.60
2017,04,03,06,52,0.60
2017,04,03,06,53,0.60
2017,04,03,06,54,0.60
2017,04,03,06,55,0.60
2017,04,03,06,56,0.60
2017,04,03,06,57,0.60
2017,04,03,06,58,0.70
2017,04,03,06,59,0.60
2017,04,03,07,00,0.60
2017,04,03,07,01,0.70
2017,04,03,07,02,0.70
2017,04,03,07,03,0.70
2017,04,03,07,04,0.70
2017,04,03,07,05,0.70
2017,04,03,07,06,0.70
2017,04,03,07,07,0.70
2017,04,03,07,08,0.70
2017,04,03,07,09,0.70
2017,04,03,07,10,0.70
2017,04,03,07,11,0.70
2017,04,03,07,12,0.70
2017,04,03,07,13,0.70
2017,04,03,07,14,0.70
2017,04,03,07,15,0.70
2017,04,03,07,16,0.70
2017,04,03,07,17,0.70
2017,04,03,07,18,0.70
2017,04,03,07,19,0.70
2017,04,03,07,20,0.70
2017,04,03,07,21,0.70
2017,04,03,07,22,0.70
2017,04,03,07,23,0.80
2017,04,03,07,24,0.80
2017,04,03,07,25,0.80
2017,04,03,07,26,0.80
2017,04,03,07,27,0.80
2017,04,03,07,28,0.80
2017,04,03,07,29,0.80
2017,04,03,07,30,0.90
2017,04,03,07,31,0.90
2017,04,03,07,32,0.90
2017,04,03,07,33,0.90
2017,04,03,07,34,0.90
2017,04,03,07,35,0.90
2017,04,03,07,36,0.90
2017,04,03,07,37,1.00
2017,04,03,07,38,1.00
2017,04,03,07,39,1.00
2017,04,03,07,40,1.00
2017,04,03,07,41,1.10
2017,04,03,07,42,1.10
2017,04,03,07,43,1.10
2017,04,03,07,44,1.20
2017,04,03,07,45,1.20
2017,04,03,07,46,1.20
2017,04,03,07,47,1.30
2017,04,03,07,48,1.30
2017,04,03,07,49,1.40
2017,04,03,07,50,1.40
2017,04,03,07,51,1.50
2017,04,03,07,52,1.60
2017,04,03,07,53,1.60
2017,04,03,07,54,1.70
2017,04,03,07,55,1.80
2017,04,03,07,56,1.90
2017,04,03,07,57,2.00
2017,04,03,07,58,2.00
2017,04,03,07,59,2.10
2017,04,03,08,00,2.20
2017,04,03,08,01,2.20
2017,04,03,08,02,2.20
2017,04,03,08,03,2.30
2017,04,03,08,04,2.30
2017,04,03,08,05,2.30
2017,04,03,08,06,2.30
2017,04,03,08,07,2.30
2017,04,03,08,08,2.30
2017,04,03,08,09,2.30
2017,04,03,08,10,2.30
2017,04,03,08,11,2.30
2017,04,03,08,12,2.30
2017,04,03,08,13,2.30
2017,04,03,08,14,2.30
2017,04,03,08,15,2.40
2017,04,03,08,16,2.40
2017,04,03,08,17,2.40
2017,04,03,08,18,2.40
2017,04,03,08,19,2.50
2017,04,03,08,20,2.50
2017,04,03,08,21,2.60
2017,04,03,08,22,2.60
2017,04,03,08,23,2.70
2017,04,03,08,24,2.70
2017,04,03,08,25,2.80
2017,04,03,08,26,2.90
2017,04,03,08,27,2.90
2017,04,03,08,28,3.00
2017,04,03,08,29,3.00
2017,04,03,08,30,3.10
2017,04,03,08,31,3.20
2017,04,03,08,32,3.30
2017,04,03,08,33,3.40
2017,04,03,08,34,3.50
2017,04,03,08,35,3.50
2017,04,03,08,36,3.60
2017,04,03,08,37,3.60
2017,04,03,08,38,3.70
2017,04,03,08,39,3.70
2017,04,03,08,40,3.70
2017,04,03,08,41,3.80
2017,04,03,08,42,3.80
2017,04,03,08,43,3.90
2017,04,03,08,44,3.90
2017,04,03,08,45,4.00
2017,04,03,08,46,4.10
2017,04,03,08,47,4.20
2017,04,03,08,48,4.30
2017,04,03,08,49,4.40
2017,04,03,08,50,4.60
2017,04,03,08,51,4.70
2017,04,03,08,52,4.90
2017,04,03,08,53,5.00
2017,04,03,08,54,5.20
2017,04,03,08,55,5.30
2017,04,03,08,56,5.40
2017,04,03,08,57,5.60
2017,04,03,08,58,5.60
2017,04,03,08,59,5.70
2017,04,03,09,00,5.80
2017,04,03,09,01,5.90
2017,04,03,09,02,5.90
2017,04,03,09,03,6.00
2017,04,03,09,04,6.10
2017,04,03,09,05,6.20
2017,04,03,09,06,6.20
2017,04,03,09,07,6.30
2017,04,03,09,08,6.50
2017,04,03,09,09,6.70
2017,04,03,09,10,6.80
2017,04,03,09,11,6.90
2017,04,03,09,12,7.00
2017,04,03,09,13,7.10
2017,04,03,09,14,7.30
2017,04,03,09,15,7.40
2017,04,03,09,16,7.50
2017,04,03,09,17,7.70
2017,04,03,09,18,7.80
2017,04,03,09,19,7.90
2017,04,03,09,20,8.00
2017,04,03,09,21,8.10
2017,04,03,09,22,8.20
2017,04,03,09,23,8.20
2017,04,03,09,24,8.30
2017,04,03,09,25,8.40
2017,04,03,09,26,8.40
2017,04,03,09,27,8.50
2017,04,03,09,28,8.50
2017,04,03,09,29,8.50
2017,04,03,09,30,8.50
2017,04,03,09,31,8.60
2017,04,03,09,32,8.60
2017,04,03,09,33,8.60
2017,04,03,09,34,8.60
2017,04,03,09,35,8.70
2017,04,03,09,36,8.80
2017,04,03,09,37,8.80
2017,04,03,09,38,8.90
2017,04,03,09,39,8.90
2017,04,03,09,40,9.00
2017,04,03,09,41,9.10
2017,04,03,09,42,9.20
2017,04,03,09,43,9.20
2017,04,03,09,44,9.30
2017,04,03,09,45,9.40
2017,04,03,09,46,9.50
2017,04,03,09,47,9.50
2017,04,03,09,48,9.50
2017,04,03,09,49,9.50
2017,04,03,09,50,9.50
2017,04,03,09,51,9.50
2017,04,03,09,52,9.60
2017,04,03,09,53,9.60
2017,04,03,09,54,9.70
2017,04,03,09,55,9.70
2017,04,03,09,56,9.80
2017,04,03,09,57,9.80
2017,04,03,09,58,9.80
2017,04,03,09,59,9.80
2017,04,03,10,00,9.80
2017,04,03,10,01,9.80
2017,04,03,10,02,9.80
2017,04,03,10,03,9.80
2017,04,03,10,04,9.70
2017,04,03,10,05,9.70
2017,04,03,10,06,9.70
2017,04,03,10,07,9.70
2017,04,03,10,08,9.70
2017,04,03,10,09,9.70
2017,04,03,10,10,9.80
2017,04,03,10,11,9.80
2017,04,03,10,12,9.90
2017,04,03,10,13,10.00
2017,04,03,10,14,10.10
2017,04,03,10,15,10.10
2017,04,03,10,16,10.10
2017,04,03,10,17,10.10
2017,04,03,10,18,10.20
2017,04,03,10,19,10.20
2017,04,03,10,20,10.20
2017,04,03,10,21,10.30
2017,04,03,10,22,10.30
2017,04,03,10,23,10.30
2017,04,03,10,24,10.30
2017,04,03,10,25,10.30
2017,04,03,10,26,10.30
2017,04,03,10,27,10.20
2017,04,03,10,28,10.30
2017,04,03,10,29,10.30
2017,04,03,10,30,10.40
2017,04,03,10,31,10.40
2017,04,03,10,32,10.50
2017,04,03,10,33,10.60
2017,04,03,10,34,10.50
2017,04,03,10,35,10.50
2017,04,03,10,36,10.40
2017,04,03,10,37,10.30
2017,04,03,10,38,10.20
2017,04,03,10,39,10.20
2017,04,03,10,40,10.20
2017,04,03,10,41,10.10
2017,04,03,10,42,10.10
2017,04,03,10,43,10.20
2017,04,03,10,44,10.20
2017,04,03,10,45,10.30
2017,04,03,10,46,10.40
2017,04,03,10,47,10.50
2017,04,03,10,48,10.50
2017,04,03,10,49,10.60
2017,04,03,10,50,10.70
2017,04,03,10,51,10.80
2017,04,03,10,52,10.90
2017,04,03,10,53,11.00
2017,04,03,10,54,11.10
2017,04,03,10,55,11.10
2017,04,03,10,56,11.20
2017,04,03,10,57,11.20
2017,04,03,10,58,11.30
2017,04,03,10,59,11.30
2017,04,03,11,00,11.30
2017,04,03,11,01,11.30
2017,04,03,11,02,11.30
2017,04,03,11,03,11.40
2017,04,03,11,04,11.40
2017,04,03,11,05,11.40
2017,04,03,11,06,11.50
2017,04,03,11,07,11.50
2017,04,03,11,08,11.50
2017,04,03,11,09,11.50
2017,04,03,11,10,11.40
2017,04,03,11,11,11.40
2017,04,03,11,12,11.40
2017,04,03,11,13,11.40
2017,04,03,11,14,11.40
2017,04,03,11,15,11.40
2017,04,03,11,16,11.30
2017,04,03,11,17,11.30
2017,04,03,11,18,11.20
2017,04,03,11,19,11.20
2017,04,03,11,20,11.20
2017,04,03,11,21,11.10
2017,04,03,11,22,11.10
2017,04,03,11,23,11.10
2017,04,03,11,24,11.00
2017,04,03,11,25,11.00
2017,04,03,11,26,10.90
2017,04,03,11,27,10.80
2017,04,03,11,28,10.80
2017,04,03,11,29,10.80
2017,04,03,11,30,10.70
2017,04,03,11,31,10.70
2017,04,03,11,32,10.70
2017,04,03,11,33,10.70
2017,04,03,11,34,10.70
2017,04,03,11,35,10.80
2017,04,03,11,36,10.80
2017,04,03,11,37,10.90
2017,04,03,11,38,10.90
2017,04,03,11,39,11.00
2017,04,03,11,40,11.10
2017,04,03,11,41,11.10
2017,04,03,11,42,11.20
2017,04,03,11,43,11.30
2017,04,03,11,44,11.30
2017,04,03,11,45,11.30
2017,04,03,11,46,11.40
2017,04,03,11,47,11.40
2017,04,03,11,48,11.40
2017,04,03,11,49,11.40
2017,04,03,11,50,11.30
2017,04,03,11,51,11.30
2017,04,03,11,52,11.30
2017,04,03,11,53,11.30
2017,04,03,11,54,11.20
2017,04,03,11,55,11.20
2017,04,03,11,56,11.20
2017,04,03,11,57,11.30
2017,04,03,11,58,11.30
2017,04,03,11,59,11.30
2017,04,03,12,00,11.30
2017,04,03,12,01,11.40
2017,04,03,12,02,11.40
2017,04,03,12,03,11.50
2017,04,03,12,04,11.60
2017,04,03,12,05,11.70
2017,04,03,12,06,11.70
2017,04,03,12,07,11.80
2017,04,03,12,08,11.80
2017,04,03,12,09,11.80
2017,04,03,12,10,11.80
2017,04,03,12,11,11.70
2017,04,03,12,12,11.60
2017,04,03,12,13,11.60
2017,04,03,12,14,11.50
2017,04,03,12,15,11.50
2017,04,03,12,16,11.60
2017,04,03,12,17,11.60
2017,04,03,12,18,11.60
2017,04,03,12,19,11.60
2017,04,03,12,20,11.60
2017,04,03,12,21,11.70
2017,04,03,12,22,11.70
2017,04,03,12,23,11.70
2017,04,03,12,24,11.70
2017,04,03,12,25,11.70
2017,04,03,12,26,11.70
2017,04,03,12,27,11.70
2017,04,03,12,28,11.70
2017,04,03,12,29,11.70
2017,04,03,12,30,11.70
2017,04,03,12,31,11.60
2017,04,03,12,32,11.60
2017,04,03,12,33,11.60
2017,04,03,12,34,11.60
2017,04,03,12,35,11.60
2017,04,03,12,36,11.60
2017,04,03,12,37,11.70
2017,04,03,12,38,11.80
2017,04,03,12,39,11.90
2017,04,03,12,40,12.00
2017,04,03,12,41,12.10
2017,04,03,12,42,12.10
2017,04,03,12,43,12.20
2017,04,03,12,44,12.30
2017,04,03,12,45,12.30
2017,04,03,12,46,12.30
2017,04,03,12,47,12.40
2017,04,03,12,48,12.40
2017,04,03,12,49,12.40
2017,04,03,12,50,12.40
2017,04,03,12,51,12.40
2017,04,03,12,52,12.40
2017,04,03,12,53,12.30
2017,04,03,12,54,12.30
2017,04,03,12,55,12.30
2017,04,03,12,56,12.30
2017,04,03,12,57,12.30
2017,04,03,12,58,12.30
2017,04,03,12,59,12.30
2017,04,03,13,00,12.30
2017,04,03,13,01,12.30
2017,04,03,13,02,12.30
2017,04,03,13,03,12.30
2017,04,03,13,04,12.30
2017,04,03,13,05,12.30
2017,04,03,13,06,12.30
2017,04,03,13,07,12.30
2017,04,03,13,08,12.20
2017,04,03,13,09,12.20
2017,04,03,13,10,12.20
2017,04,03,13,11,12.20
2017,04,03,13,12,12.20
2017,04,03,13,13,12.20
2017,04,03,13,14,12.20
2017,04,03,13,15,12.20
2017,04,03,13,16,12.30
2017,04,03,13,17,12.30
2017,04,03,13,18,12.30
2017,04,03,13,19,12.40
2017,04,03,13,20,12.40
2017,04,03,13,21,12.40
2017,04,03,13,22,12.40
2017,04,03,13,23,12.40
2017,04,03,13,24,12.40
2017,04,03,13,25,12.40
2017,04,03,13,26,12.30
2017,04,03,13,27,12.30
2017,04,03,13,28,12.30
2017,04,03,13,29,12.20
2017,04,03,13,30,12.20
2017,04,03,13,31,12.10
2017,04,03,13,32,12.10
2017,04,03,13,33,12.20
2017,04,03,13,34,12.20
2017,04,03,13,35,12.20
2017,04,03,13,36,12.30
2017,04,03,13,37,12.30
2017,04,03,13,38,12.30
2017,04,03,13,39,12.30
2017,04,03,13,40,12.30
2017,04,03,13,41,12.30
2017,04,03,13,42,12.30
2017,04,03,13,43,12.30
2017,04,03,13,44,12.20
2017,04,03,13,45,12.20
2017,04,03,13,46,12.20
2017,04,03,13,47,12.20
2017,04,03,13,48,12.20
2017,04,03,13,49,12.30
2017,04,03,13,50,12.30
2017,04,03,13,51,12.30
2017,04,03,13,52,12.30
2017,04,03,13,53,12.30
2017,04,03,13,54,12.20
2017,04,03,13,55,12.20
2017,04,03,13,56,12.20
2017,04,03,13,57,12.20
2017,04,03,13,58,12.20
2017,04,03,13,59,12.20
2017,04,03,14,00,12.20
2017,04,03,14,01,12.20
2017,04,03,14,02,12.20
2017,04,03,14,03,12.30
2017,04,03,14,04,12.20
2017,04,03,14,05,12.20
2017,04,03,14,06,12.10
2017,04,03,14,07,12.00
2017,04,03,14,08,11.90
2017,04,03,14,09,11.90
2017,04,03,14,10,11.80
2017,04,03,14,11,11.70
2017,04,03,14,12,11.70
2017,04,03,14,13,11.60
2017,04,03,14,14,11.60
2017,04,03,14,15,11.70
2017,04,03,14,16,11.70
2017,04,03,14,17,11.80
2017,04,03,14,18,11.80
2017,04,03,14,19,11.80
2017,04,03,14,20,11.80
2017,04,03,14,21,11.70
2017,04,03,14,22,11.70
2017,04,03,14,23,11.70
2017,04,03,14,24,11.70
2017,04,03,14,25,11.70
2017,04,03,14,26,11.70
2017,04,03,14,27,11.70
2017,04,03,14,28,11.70
2017,04,03,14,29,11.70
2017,04,03,14,30,11.80
2017,04,03,14,31,11.80
2017,04,03,14,32,11.90
2017,04,03,14,33,11.90
2017,04,03,14,34,12.00
2017,04,03,14,35,12.10
2017,04,03,14,36,12.10
2017,04,03,14,37,12.20
2017,04,03,14,38,12.30
2017,04,03,14,39,12.40
2017,04,03,14,40,12.40
2017,04,03,14,41,12.50
2017,04,03,14,42,12.60
2017,04,03,14,43,12.70
2017,04,03,14,44,12.70
2017,04,03,14,45,12.70
2017,04,03,14,46,12.80
2017,04,03,14,47,12.80
2017,04,03,14,48,12.80
2017,04,03,14,49,12.90
2017,04,03,14,50,12.90
2017,04,03,14,51,12.90
2017,04,03,14,52,12.90
2017,04,03,14,53,13.00
2017,04,03,14,54,13.10
2017,04,03,14,55,13.10
2017,04,03,14,56,13.20
2017,04,03,14,57,13.20
2017,04,03,14,58,13.20
2017,04,03,14,59,13.30
2017,04,03,15,00,13.30
2017,04,03,15,01,13.30
2017,04,03,15,02,13.20
2017,04,03,15,03,13.20
2017,04,03,15,04,13.20
2017,04,03,15,05,13.20
2017,04,03,15,06,13.20
2017,04,03,15,07,13.20
2017,04,03,15,08,13.20
2017,04,03,15,09,13.30
2017,04,03,15,10,13.20
2017,04,03,15,11,13.30
2017,04,03,15,12,13.30
2017,04,03,15,13,13.30
2017,04,03,15,14,13.30
2017,04,03,15,15,13.30
2017,04,03,15,16,13.40
2017,04,03,15,17,13.40
2017,04,03,15,18,13.40
2017,04,03,15,19,13.30
2017,04,03,15,20,13.30
2017,04,03,15,21,13.30
2017,04,03,15,22,13.40
2017,04,03,15,23,13.40
2017,04,03,15,24,13.40
2017,04,03,15,25,13.40
2017,04,03,15,26,13.40
2017,04,03,15,27,13.50
2017,04,03,15,28,13.50
2017,04,03,15,29,13.60
2017,04,03,15,30,13.60
2017,04,03,15,31,13.60
2017,04,03,15,32,13.60
2017,04,03,15,33,13.60
2017,04,03,15,34,13.70
2017,04,03,15,35,13.70
2017,04,03,15,36,13.80
2017,04,03,15,37,13.80
2017,04,03,15,38,13.90
2017,04,03,15,39,13.90
2017,04,03,15,40,14.00
2017,04,03,15,41,14.00
2017,04,03,15,42,14.00
2017,04,03,15,43,14.00
2017,04,03,15,44,14.00
2017,04,03,15,45,14.00
2017,04,03,15,46,14.00
2017,04,03,15,47,14.00
2017,04,03,15,48,13.90
2017,04,03,15,49,13.90
2017,04,03,15,50,13.90
2017,04,03,15,51,13.80
2017,04,03,15,52,13.80
2017,04,03,15,53,13.70
2017,04,03,15,54,13.70
2017,04,03,15,55,13.70
2017,04,03,15,56,13.70
2017,04,03,15,57,13.70
2017,04,03,15,58,13.70
2017,04,03,15,59,13.60
2017,04,03,16,00,13.60
2017,04,03,16,01,13.60
2017,04,03,16,02,13.60
2017,04,03,16,03,13.60
2017,04,03,16,04,13.60
2017,04,03,16,05,13.60
2017,04,03,16,06,13.60
2017,04,03,16,07,13.60
2017,04,03,16,08,13.60
2017,04,03,16,09,13.60
2017,04,03,16,10,13.50
2017,04,03,16,11,13.50
2017,04,03,16,12,13.50
2017,04,03,16,13,13.50
2017,04,03,16,14,13.60
2017,04,03,16,15,13.60
2017,04,03,16,16,13.60
2017,04,03,16,17,13.60
2017,04,03,16,18,13.60
2017,04,03,16,19,13.60
2017,04,03,16,20,13.60
2017,04,03,16,21,13.60
2017,04,03,16,22,13.60
2017,04,03,16,23,13.60
2017,04,03,16,24,13.60
2017,04,03,16,25,13.70
2017,04,03,16,26,13.70
2017,04,03,16,27,13.70
2017,04,03,16,28,13.80
2017,04,03,16,29,13.80
2017,04,03,16,30,13.80
2017,04,03,16,31,13.80
2017,04,03,16,32,13.90
2017,04,03,16,33,13.90
2017,04,03,16,34,14.00
2017,04,03,16,35,14.00
2017,04,03,16,36,14.00
2017,04,03,16,37,14.00
2017,04,03,16,38,13.90
2017,04,03,16,39,13.90
2017,04,03,16,40,13.90
2017,04,03,16,41,13.90
2017,04,03,16,42,13.90
2017,04,03,16,43,13.90
2017,04,03,16,44,13.90
2017,04,03,16,45,13.90
2017,04,03,16,46,13.80
2017,04,03,16,47,13.80
2017,04,03,16,48,13.80
2017,04,03,16,49,13.80
2017,04,03,16,50,13.70
2017,04,03,16,51,13.70
2017,04,03,16,52,13.70
2017,04,03,16,53,13.60
2017,04,03,16,54,13.60
2017,04,03,16,55,13.50
2017,04,03,16,56,13.50
2017,04,03,16,57,13.50
2017,04,03,16,58,13.50
2017,04,03,16,59,13.50
2017,04,03,17,00,13.50
2017,04,03,17,01,13.60
2017,04,03,17,02,13.60
2017,04,03,17,03,13.60
2017,04,03,17,04,13.60
2017,04,03,17,05,13.60
2017,04,03,17,06,13.60
2017,04,03,17,07,13.60
2017,04,03,17,08,13.60
2017,04,03,17,09,13.60
2017,04,03,17,10,13.60
2017,04,03,17,11,13.60
2017,04,03,17,12,13.50
2017,04,03,17,13,13.40
2017,04,03,17,14,13.40
2017,04,03,17,15,13.40
2017,04,03,17,16,13.40
2017,04,03,17,17,13.40
2017,04,03,17,18,13.40
2017,04,03,17,19,13.50
2017,04,03,17,20,13.50
2017,04,03,17,21,13.60
2017,04,03,17,22,13.60
2017,04,03,17,23,13.60
2017,04,03,17,24,13.50
2017,04,03,17,25,13.50
2017,04,03,17,26,13.40
2017,04,03,17,27,13.40
2017,04,03,17,28,13.30
2017,04,03,17,29,13.30
2017,04,03,17,30,13.30
2017,04,03,17,31,13.20
2017,04,03,17,32,13.20
2017,04,03,17,33,13.20
2017,04,03,17,34,13.30
2017,04,03,17,35,13.30
2017,04,03,17,36,13.30
2017,04,03,17,37,13.30
2017,04,03,17,38,13.20
2017,04,03,17,39,13.20
2017,04,03,17,40,13.20
2017,04,03,17,41,13.20
2017,04,03,17,42,13.20
2017,04,03,17,43,13.20
2017,04,03,17,44,13.20
2017,04,03,17,45,13.20
2017,04,03,17,46,13.20